Home   Weather   Esfahãn   Past weeks

Flag for Iran Past Weather in Esfahãn, Iran — Yesterday and Last 2 Weeks

Now
68 °F

Scattered clouds.


Feels Like: 68 °F
Forecast: 47 / 75 °F
Wind: 24 mph from Northeast

Location: Esfahan

Current Time: Apr 28, 2017 at 7:04:17 pm

Latest Report: Apr 28, 2017 at 6:00 pm


Visibility: N/A

Pressure: 30.15 "Hg (25.09 "Hg at 1576m altitude)

Humidity: 49%

Dew Point: 48 °F

Location of EsfahãnLocation

Past Weather in Esfahãn — Graph

°F

Esfahãn Temperature Yesterday

Maximum temperature yesterday: 77 °F (at 2:30 pm)
Minimum temperature yesterday: 46 °F (at 6:00 am)
Average temperature yesterday: 62 °F

High & Low Weather Summary for the Past Weeks

 TemperatureHumidityPressure
High86 °F (Apr 14, 2:30 pm)100% (Apr 28, 3:30 am)30.30 "Hg (Apr 28, 3:30 am)
Low37 °F (Apr 22, 6:00 am)5% (Apr 21, 5:30 pm)29.98 "Hg (Apr 15, 7:30 pm)
Average65 °F32%30.11 "Hg
* Reported Apr 13 5:30 pm — Apr 28 5:30 pm, Esfahãn, Weather by CustomWeather, © 2017

Note: Actual official high and low records may vary slightly from our data, if they occured in-between our weather recording intervals... More about our weather records

Advertising

Esfahãn Weather History for the Previous 24 Hours

Scroll right to see more
 ConditionsComfort  
Time TempWeatherWind HumidityBarometerVisibility
5:30 pm
Fri, Apr 28
70 °FThunderstorms. Scattered clouds.9 mph53%30.15 "Hg4 mi
5:00 pm72 °FThunderstorms. Broken clouds.18 mph36%30.15 "HgN/A
4:30 pm73 °FThunderstorms. Scattered clouds.5 mph36%30.15 "HgN/A
4:00 pm72 °FMore clouds than sun.5 mph41%30.15 "HgN/A
3:30 pm72 °FPartly sunny.7 mph41%30.18 "HgN/A
3:00 pm72 °FScattered clouds.7 mph41%30.18 "HgN/A
2:30 pm72 °FScattered clouds.5 mph41%30.18 "HgN/A
2:00 pm72 °FScattered clouds.5 mph41%30.21 "HgN/A
1:30 pm70 °FClear.7 mph46%30.24 "Hg4 mi
1:00 pm68 °FSunny.No wind49%30.24 "Hg10 mi
12:00 pm66 °FSunny.No wind56%30.24 "Hg10 mi
11:30 am64 °FSunny.No wind56%30.27 "Hg10 mi
11:00 am66 °FSunny.No wind52%30.27 "Hg10 mi
10:30 am63 °FClear.5 mph64%30.27 "Hg4 mi
10:00 am61 °FHaze.No wind68%30.27 "Hg3 mi
9:30 am59 °FHaze.5 mph72%30.27 "Hg1 mi
9:00 am57 °FFog.5 mph82%30.27 "Hg1 mi
8:30 am54 °FFog.5 mph88%30.27 "Hg1 mi
8:00 am52 °FFog.5 mph94%30.27 "Hg2 mi
7:30 am46 °FFog.No wind93%30.24 "Hg2 mi
7:00 am45 °FFog.No wind93%30.27 "Hg2 mi
6:30 am46 °FFog.No wind93%30.24 "Hg2 mi
6:00 am48 °FFog.5 mph94%30.24 "Hg2 mi
5:30 am48 °FFog.No wind100%30.24 "Hg3 mi
5:00 am48 °FFog.No wind94%30.24 "Hg3 mi
4:30 am46 °FFog.5 mph100%30.24 "Hg3 mi
4:00 am48 °FPassing clouds.No wind94%30.24 "Hg4 mi
3:30 am50 °FPassing clouds.No wind100%30.24 "Hg4 mi
3:00 am50 °FPassing clouds.5 mph94%30.24 "Hg4 mi
2:30 am52 °FPassing clouds.5 mph94%30.24 "Hg4 mi
2:00 am52 °FFog.9 mph94%30.24 "Hg3 mi
1:30 am54 °FPassing clouds.5 mph88%30.24 "Hg4 mi
1:00 am54 °FPassing clouds.12 mph88%30.24 "Hg5 mi
12:30 am54 °FPartly cloudy.9 mph88%30.24 "Hg4 mi
12:00 am55 °FThunderstorms. Fog.18 mph82%30.30 "Hg2 mi
11:30 pm
Thu, Apr 27
55 °FPartly cloudy.7 mph82%30.27 "Hg4 mi
11:00 pm55 °FPartly cloudy.5 mph88%30.27 "Hg4 mi
10:30 pm57 °FPartly cloudy.7 mph82%30.27 "Hg4 mi
10:00 pm59 °FPartly cloudy.7 mph77%30.27 "Hg5 mi
9:30 pm59 °FPartly cloudy.No wind77%30.24 "HgN/A
9:00 pm59 °FPartly cloudy.No wind77%30.24 "Hg5 mi
8:30 pm61 °FMostly cloudy.5 mph72%30.24 "Hg4 mi
8:00 pm61 °FMore clouds than sun.5 mph72%30.21 "Hg4 mi
7:30 pm61 °FMore clouds than sun.7 mph63%30.21 "Hg3 mi
7:00 pm63 °FThunderstorms. More clouds than sun.14 mph56%30.15 "Hg2 mi
Weather by CustomWeather, © 2017

See weather overviewHow to use our weather pages